Voltar ao catálogo

SAMSAT-ION 2

AtivoRádio AmadorSSO
NORAD 61784·PAYLOAD·🇷🇺 Russia
Este nome de satélite ainda não foi confirmado por fontes oficiais.

Lançado Nov 4, 2024 de Vostochny Cosmodrome

Loading…

Próximas Passagens (próximas 24 horas)

TLE

AtualizadoSource: Space-Track

Época: Sep 14, 2026, 15:09 UTC

1 61784U 24199BB  26257.63137866  .00061684  00000-0  59047-3 0  9996
2 61784  97.2749 136.0940 0004065 321.8882  38.2091 15.66491408151527

Acompanhe SAMSAT-ION 2 em tempo real com AllMySat

Download on the App Store